Location: Frankfurt+am+Main
(50.1100°N, 8.4815°E)
Time: 23:06:16
(UTC+01:00)

ISS - Pass Details

Date: 14 November 2017
Orbit: 402 x 407 km, 51.6° (Epoch: 23 November)

Event Time Altitude Azimuth Distance (km) Brightness Sun altitude
Exits shadow 05:45:05 48° 223° (SW) 536 -3.5 -17.9°
Maximum altitude 05:45:19 49° 207° (SSW) 527 -3.5 -17.9°
Drops below altitude 10° 05:48:29 10° 130° (SE) 1,452 -0.2 -17.4°
Sets 05:50:35 0° 125° (SE) 2,309 1.2 -17.1°
